Location: Clanezzo
(45.7500°N, 9.6000°E)
Time: 02:45:18
(UTC+00:00)

STARS - Pass Details

Date: 07 July 2022
Orbit: 620 x 637 km, 98.2° (Epoch: 13 August)

Event Time Altitude Azimuth Distance (km) Brightness Sun altitude
Rises 21:23:51 0° 23° (NNE) 2,925 ? -16.3°
Reaches altitude 10° 21:26:18 10° 34° (NE) 2,010 ? -16.5°
Maximum altitude 21:30:08 30° 96° (E) 1,138 ? -16.8°
Enters shadow 21:31:03 27° 119° (ESE) 1,202 ? -16.9°
